EW2281 Weather Reports


Display with metric or nautical units.
time (UTC)temp
F
wind
direction
speed
MPH
gust
MPH
rain 1hr
in
rain 24hr
in
rain mn
in
humidity
%
barometer
mb
20200402094119 36 285 0.0 3.0 0.00 0.00 0.00 69 1012.5
20200402093616 36 275 1.0 4.0 0.00 0.00 0.00 69 1012.5
20200402093118 36 265 1.0 4.0 0.00 0.00 0.00 68 1012.5
20200402092618 36 287 1.0 7.0 0.00 0.00 0.00 68 1012.4
20200402092117 36 295 0.0 7.0 0.00 0.00 0.00 68 1012.5
20200402091617 37 290 1.0 5.0 0.00 0.00 0.00 67 1012.5
20200402091117 37 280 1.0 7.0 0.00 0.00 0.00 67 1012.5
20200402090618 37 269 1.0 7.0 0.00 0.00 0.00 66 1012.5
20200402090113 37 271 1.0 6.0 0.00 0.00 0.00 66 1012.5
20200402085614 37 274 1.0 6.0 0.00 0.00 0.00 66 1012.4
20200402085114 37 279 1.0 4.0 0.00 0.00 0.00 65 1012.4
20200402084612 37 292 1.0 5.0 0.00 0.00 0.00 65 1012.4
20200402084116 37 281 1.0 5.0 0.00 0.00 0.00 65 1012.4
20200402083616 37 289 1.0 5.0 0.00 0.00 0.00 64 1012.4
20200402083111 38 289 1.0 5.0 0.00 0.00 0.00 64 1012.4
20200402082610 38 285 1.0 7.0 0.00 0.00 0.00 64 1012.4
20200402082109 38 243 1.0 7.0 0.00 0.00 0.00 63 1012.4
20200402081609 38 285 1.0 8.0 0.00 0.00 0.00 63 1012.4
20200402081108 38 319 1.0 8.0 0.00 0.00 0.00 63 1012.3
20200402080610 38 337 1.0 5.0 0.00 0.00 0.00 63 1012.3
20200402080104 38 340 0.0 4.0 0.00 0.00 0.00 63 1012.2
20200402075606 38 290 1.0 5.0 0.00 0.00 0.00 63 1012.3
20200402075105 38 276 1.0 5.0 0.00 0.00 0.00 62 1012.3
20200402074605 38 269 1.0 5.0 0.00 0.00 0.00 62 1012.3
20200402074105 38 280 1.0 5.0 0.00 0.00 0.00 63 1012.3
20200402073605 38 284 1.0 5.0 0.00 0.00 0.00 63 1012.3
20200402073101 38 342 1.0 6.0 0.00 0.00 0.00 63 1012.4
20200402072601 38 302 1.0 6.0 0.00 0.00 0.00 63 1012.4
20200402072102 37 293 0.0 4.0 0.00 0.00 0.00 64 1012.3
20200402071559 37 337 0.0 3.0 0.00 0.00 0.00 66 1012.4
20200402071058 36 279 0.0 3.0 0.00 0.00 0.00 67 1012.4
20200402070559 35 264 1.0 5.0 0.00 0.00 0.00 71 1012.4
20200402070102 33 272 0.0 5.0 0.00 0.00 0.00 75 1012.5
20200402065557 32 319 0.0 4.0 0.00 0.00 0.00 79 1012.5
20200402065056 31 142 0.0 0.0 0.00 0.00 0.00 79 1012.5
20200402064555 31 143 0.0 0.0 0.00 0.00 0.00 79 1012.5
20200402064054 31 152 0.0 0.0 0.00 0.00 0.00 80 1012.5
20200402063552 31 165 0.0 0.0 0.00 0.00 0.00 80 1012.5
20200402063051 31 171 0.0 0.0 0.00 0.00 0.00 80 1012.5
20200402062548 31 171 0.0 0.0 0.00 0.00 0.00 80 1012.5
20200402062049 31 207 0.0 0.0 0.00 0.00 0.00 80 1012.6
20200402061550 31 206 0.0 0.0 0.00 0.00 0.00 80 1012.6
20200402061048 31 282 0.0 0.0 0.00 0.00 0.00 80 1012.6
20200402060546 31 282 0.0 0.0 0.00 0.00 0.00 80 1012.6
20200402060045 31 286 0.0 0.0 0.00 0.00 0.00 80 1012.7
20200402055541 31 286 0.0 0.0 0.00 0.00 0.00 81 1012.7
20200402055041 31 286 0.0 0.0 0.00 0.00 0.00 81 1012.8
20200402054541 31 286 0.0 0.0 0.00 0.00 0.00 81 1012.8
20200402054042 31 292 0.0 0.0 0.00 0.00 0.00 80 1012.8
20200402053539 31 292 0.0 0.0 0.00 0.00 0.00 80 1012.8
20200402053041 31 292 0.0 0.0 0.00 0.00 0.00 80 1012.7
20200402052535 31 292 0.0 0.0 0.00 0.00 0.00 80 1012.7
20200402052036 31 292 0.0 0.0 0.00 0.00 0.00 81 1012.7
20200402051536 31 292 0.0 0.0 0.00 0.00 0.00 80 1012.6
20200402051035 31 292 0.0 0.0 0.00 0.00 0.00 79 1012.6
20200402050532 31 292 0.0 0.0 0.00 0.00 0.00 79 1012.6
20200402050033 31 43 0.0 0.0 0.00 0.00 0.00 78 1012.6
20200402045530 31 42 0.0 0.0 0.00 0.00 0.00 77 1012.6
20200402045030 31 42 0.0 0.0 0.00 0.00 0.00 77 1012.5
20200402044530 32 42 0.0 0.0 0.00 0.00 0.00 76 1012.5
20200402044029 32 42 0.0 0.0 0.00 0.00 0.00 76 1012.5
20200402043528 32 42 0.0 0.0 0.00 0.00 0.00 75 1012.5
20200402043027 32 42 0.0 0.0 0.00 0.00 0.00 74 1012.4
20200402042524 33 42 0.0 0.0 0.00 0.00 0.00 74 1012.5
20200402042025 33 42 0.0 0.0 0.00 0.00 0.00 73 1012.5
20200402041526 33 42 0.0 0.0 0.00 0.00 0.00 72 1012.5
20200402041023 33 42 0.0 0.0 0.00 0.00 0.00 71 1012.5
20200402040522 34 42 0.0 0.0 0.00 0.00 0.00 70 1012.5
20200402040022 34 42 0.0 0.0 0.00 0.00 0.00 70 1012.5
20200402035517 35 42 0.0 0.0 0.00 0.00 0.00 68 1012.5
20200402035015 35 42 0.0 0.0 0.00 0.00 0.00 67 1012.5
20200402034516 35 42 0.0 0.0 0.00 0.00 0.00 65 1012.5
20200402034015 36 42 0.0 0.0 0.00 0.00 0.00 63 1012.5
20200402033513 37 42 0.0 0.0 0.00 0.00 0.00 62 1012.5
20200402033015 38 42 0.0 0.0 0.00 0.00 0.00 61 1012.5
20200402032508 38 42 0.0 0.0 0.00 0.00 0.00 60 1012.5
20200402032005 39 42 0.0 0.0 0.00 0.00 0.00 59 1012.4
20200402031504 40 42 0.0 0.0 0.00 0.00 0.00 58 1012.4
20200402031001 40 42 0.0 0.0 0.00 0.00 0.00 57 1012.4
20200402030504 41 42 0.0 2.0 0.00 0.00 0.00 57 1012.4
20200402025959 41 32 1.0 4.0 0.00 0.00 0.00 56 1012.3
20200402025457 41 342 1.0 7.0 0.00 0.00 0.00 56 1012.2
20200402024957 41 34 1.0 7.0 0.00 0.00 0.00 55 1012.2
20200402024457 42 21 1.0 5.0 0.00 0.00 0.00 55 1012.3
20200402023956 42 10 1.0 5.0 0.00 0.00 0.00 55 1012.2
20200402023455 42 42 2.0 6.0 0.00 0.00 0.00 55 1012.2
20200402022948 42 326 3.0 9.0 0.00 0.00 0.00 54 1012.2
20200402022448 42 40 3.0 12.0 0.00 0.00 0.00 54 1012.2
20200402021948 42 335 3.0 12.0 0.00 0.00 0.00 54 1012.3
20200402021450 42 51 2.0 6.0 0.00 0.00 0.00 53 1012.2
20200402020947 43 348 2.0 6.0 0.00 0.00 0.00 53 1012.2
20200402020447 43 340 3.0 11.0 0.00 0.00 0.00 53 1012.1
20200402015944 43 24 3.0 11.0 0.00 0.00 0.00 53 1012.1
20200402015442 43 39 2.0 8.0 0.00 0.00 0.00 52 1012.1
20200402014950 43 39 2.0 6.0 0.00 0.00 0.00 52 1012.0
20200402014443 44 339 2.0 5.0 0.00 0.00 0.00 52 1012.0
20200402013942 44 32 2.0 8.0 0.00 0.00 0.00 52 1012.0
20200402013441 44 38 2.0 8.0 0.00 0.00 0.00 51 1011.9
20200402012939 44 342 2.0 7.0 0.00 0.00 0.00 52 1011.9
20200402012437 45 355 2.0 7.0 0.00 0.00 0.00 51 1011.8
20200402011937 45 338 2.0 5.0 0.00 0.00 0.00 50 1011.8
20200402011437 45 257 2.0 5.0 0.00 0.00 0.00 50 1011.6
20200402010936 46 115 3.0 7.0 0.00 0.00 0.00 49 1011.6
20200402010438 46 71 3.0 10.0 0.00 0.00 0.00 49 1011.4
20200402005929 46 334 2.0 10.0 0.00 0.00 0.00 49 1011.3
20200402005429 46 140 2.0 10.0 0.00 0.00 0.00 48 1011.1
20200402004930 46 336 2.0 6.0 0.00 0.00 0.00 48 1011.0
20200402004429 46 327 1.0 4.0 0.00 0.00 0.00 47 1010.9
20200402003930 47 19 1.0 4.0 0.00 0.00 0.00 47 1010.8
20200402003429 47 17 1.0 4.0 0.00 0.00 0.00 46 1010.7
20200402002927 47 37 1.0 4.0 0.00 0.00 0.00 46 1010.6
20200402002425 47 42 1.0 5.0 0.00 0.00 0.00 47 1010.4
20200402001926 48 15 1.0 5.0 0.00 0.00 0.00 46 1010.3
20200402001425 48 343 2.0 7.0 0.00 0.00 0.00 46 1010.2
20200402000924 48 21 3.0 7.0 0.00 0.00 0.00 45 1010.1
20200402000423 49 223 2.0 7.0 0.00 0.00 0.00 46 1010.0
20200401235917 49 17 2.0 6.0 0.00 0.00 0.00 45 1009.9
20200401235417 49 329 3.0 11.0 0.00 0.00 0.00 45 1009.8
20200401234917 49 15 3.0 11.0 0.00 0.00 0.00 45 1009.7
20200401234418 49 33 2.0 6.0 0.00 0.00 0.00 45 1009.6
20200401233917 49 345 2.0 5.0 0.00 0.00 0.00 47 1009.5
20200401233417 50 9 3.0 6.0 0.00 0.00 0.00 46 1009.5
20200401232921 50 31 2.0 6.0 0.00 0.00 0.00 47 1009.4
20200401232410 51 36 2.0 6.0 0.00 0.00 0.00 47 1009.3
20200401231912 51 344 2.0 10.0 0.00 0.00 0.00 46 1009.3
20200401231410 51 33 2.0 10.0 0.00 0.00 0.00 45 1009.3
20200401230911 52 204 4.0 11.0 0.00 0.00 0.00 46 1009.3
20200401230412 52 105 5.0 11.0 0.00 0.00 0.00 45 1009.2
20200401225911 53 42 4.0 10.0 0.00 0.00 0.00 47 1009.1
20200401225408 53 338 4.0 9.0 0.00 0.00 0.00 46 1009.0
20200401224907 54 319 2.0 9.0 0.00 0.00 0.00 47 1008.9
20200401224409 54 342 3.0 11.0 0.00 0.00 0.00 47 1008.9
20200401223910 53 288 3.0 11.0 0.00 0.00 0.00 48 1008.9
20200401223407 53 23 4.0 11.0 0.00 0.00 0.00 47 1008.9
20200401222907 54 22 4.0 11.0 0.00 0.00 0.00 46 1008.8
20200401222407 54 213 4.0 9.0 0.00 0.00 0.00 47 1008.8
20200401221904 54 336 5.0 13.0 0.00 0.00 0.00 47 1008.8
20200401221404 54 24 5.0 13.0 0.00 0.00 0.00 46 1008.9
20200401220904 54 336 4.0 11.0 0.00 0.00 0.00 46 1008.8
20200401220404 55 43 4.0 12.0 0.00 0.00 0.00 46 1008.6
20200401215903 55 348 4.0 12.0 0.00 0.00 0.00 45 1008.5
20200401215405 55 5 3.0 10.0 0.00 0.00 0.00 47 1008.5
20200401214908 55 15 3.0 10.0 0.00 0.00 0.00 47 1008.5
20200401214359 55 286 4.0 13.0 0.00 0.00 0.00 48 1008.4
20200401213859 54 24 4.0 13.0 0.00 0.00 0.00 47 1008.4
20200401213359 54 43 3.0 11.0 0.00 0.00 0.00 51 1008.4
20200401212900 54 333 3.0 10.0 0.00 0.00 0.00 49 1008.3
20200401212359 53 18 3.0 10.0 0.00 0.00 0.00 51 1008.3
20200401211859 53 44 3.0 8.0 0.00 0.00 0.00 52 1008.3
20200401211353 53 334 3.0 9.0 0.00 0.00 0.00 52 1008.3
20200401210853 52 51 4.0 11.0 0.00 0.00 0.00 53 1008.3
20200401210356 52 41 4.0 11.0 0.00 0.00 0.00 52 1008.3
20200401205853 52 229 2.0 9.0 0.00 0.00 0.00 54 1008.3
20200401205354 51 25 3.0 16.0 0.00 0.00 0.00 55 1008.3
20200401204852 51 17 6.0 16.0 0.00 0.00 0.00 55 1008.4
20200401204348 51 19 6.0 14.0 0.00 0.00 0.00 54 1008.3
20200401203848 52 343 5.0 13.0 0.00 0.00 0.00 54 1008.4
20200401203347 52 337 3.0 13.0 0.00 0.00 0.00 56 1008.4
20200401202852 52 343 3.0 9.0 0.00 0.00 0.00 55 1008.4
20200401202349 52 351 5.0 12.0 0.00 0.00 0.00 56 1008.4
20200401201849 52 11 5.0 13.0 0.00 0.00 0.00 55 1008.4
20200401201349 52 348 3.0 13.0 0.00 0.00 0.00 55 1008.4
20200401200844 52 11 4.0 10.0 0.00 0.00 0.00 59 1008.4
20200401200345 52 46 5.0 12.0 0.00 0.00 0.00 56 1008.4
20200401195846 53 323 4.0 13.0 0.00 0.00 0.00 55 1008.4
20200401195344 53 343 4.0 13.0 0.00 0.00 0.00 56 1008.3
20200401194846 53 53 4.0 13.0 0.00 0.00 0.00 53 1008.3
20200401194345 54 332 5.0 12.0 0.00 0.00 0.00 56 1008.3
20200401193844 53 344 5.0 13.0 0.00 0.00 0.00 57 1008.3
20200401193351 53 19 5.0 13.0 0.00 0.00 0.00 59 1008.4
20200401192844 53 15 4.0 10.0 0.00 0.00 0.00 57 1008.3
20200401192344 53 36 4.0 10.0 0.00 0.00 0.00 58 1008.3
20200401191845 53 9 4.0 10.0 0.00 0.00 0.00 57 1008.3
20200401191340 54 101 4.0 10.0 0.00 0.00 0.00 60 1008.2
20200401190842 53 40 4.0 8.0 0.00 0.00 0.00 65 1008.3
20200401190340 52 331 4.0 10.0 0.00 0.00 0.00 63 1008.3
20200401185840 52 329 4.0 10.0 0.00 0.00 0.00 60 1008.4
20200401185342 52 325 3.0 11.0 0.00 0.00 0.00 59 1008.5
20200401184841 52 74 3.0 11.0 0.00 0.00 0.00 60 1008.4
20200401184336 52 63 3.0 9.0 0.00 0.00 0.00 63 1008.4
20200401183836 53 346 3.0 8.0 0.00 0.00 0.00 60 1008.5
20200401183336 53 24 3.0 8.0 0.00 0.00 0.00 60 1008.4
20200401182835 53 33 4.0 13.0 0.00 0.00 0.00 62 1008.5
20200401182335 53 337 3.0 13.0 0.00 0.00 0.00 66 1008.6
20200401181838 53 271 3.0 11.0 0.00 0.00 0.00 64 1008.6
20200401181332 52 331 3.0 11.0 0.00 0.00 0.00 67 1008.8
20200401180833 52 12 2.0 8.0 0.00 0.00 0.00 71 1008.9
20200401180334 51 86 2.0 9.0 0.00 0.00 0.00 68 1009.0
20200401175832 51 333 3.0 9.0 0.00 0.00 0.00 68 1009.1
20200401175332 51 5 3.0 9.0 0.00 0.00 0.00 67 1009.1
20200401174833 52 339 3.0 9.0 0.00 0.00 0.00 64 1009.2
20200401174326 52 323 4.0 10.0 0.00 0.00 0.00 67 1009.2
20200401173827 51 355 4.0 10.0 0.00 0.00 0.00 69 1009.2
20200401173325 51 40 4.0 12.0 0.00 0.00 0.00 75 1009.3
20200401172825 49 21 3.0 12.0 0.00 0.00 0.00 75 1009.4
20200401172327 48 51 2.0 7.0 0.00 0.00 0.00 77 1009.5
20200401171826 48 327 3.0 12.0 0.00 0.00 0.00 77 1009.5
20200401171326 49 347 3.0 12.0 0.00 0.00 0.00 75 1009.6
20200401170819 49 336 2.0 8.0 0.00 0.00 0.00 77 1009.5
20200401170320 49 11 2.0 8.0 0.00 0.00 0.00 75 1009.6
20200401165821 49 296 1.0 6.0 0.00 0.00 0.00 77 1009.7
20200401165318 50 36 1.0 5.0 0.00 0.00 0.00 75 1009.7
20200401164817 50 321 1.0 4.0 0.00 0.00 0.00 74 1009.7
20200401164316 50 277 1.0 5.0 0.00 0.00 0.00 79 1009.7
20200401163809 50 313 1.0 5.0 0.00 0.00 0.00 77 1009.8
20200401163310 50 279 1.0 4.0 0.00 0.00 0.00 77 1009.8
20200401162810 50 167 1.0 5.0 0.00 0.00 0.00 82 1009.8
20200401162308 48 166 1.0 5.0 0.00 0.00 0.00 85 1009.9
20200401161808 47 331 0.0 2.0 0.00 0.00 0.00 87 1010.0
20200401161310 46 292 0.0 2.0 0.00 0.00 0.00 87 1010.1
20200401160807 46 330 1.0 7.0 0.00 0.00 0.00 86 1010.2
20200401160303 46 306 2.0 7.0 0.00 0.00 0.00 85 1010.2
20200401155803 47 340 3.0 10.0 0.00 0.00 0.00 84 1010.3
20200401155303 47 328 3.0 10.0 0.00 0.00 0.00 85 1010.3
20200401154805 47 331 2.0 9.0 0.00 0.00 0.00 85 1010.3
20200401154304 46 5 1.0 5.0 0.00 0.00 0.00 85 1010.3
20200401153803 46 32 1.0 5.0 0.00 0.00 0.00 84 1010.3
20200401153257 46 11 1.0 5.0 0.00 0.00 0.00 82 1010.4
20200401152757 47 22 1.0 4.0 0.00 0.00 0.00 80 1010.3
20200401152259 47 5 1.0 4.0 0.00 0.00 0.00 80 1010.3
20200401151757 46 336 1.0 4.0 0.00 0.00 0.00 80 1010.3
20200401151256 46 323 1.0 6.0 0.00 0.00 0.00 80 1010.3
20200401150756 47 291 1.0 6.0 0.00 0.00 0.00 79 1010.3
20200401150253 47 326 1.0 5.0 0.00 0.00 0.00 80 1010.3
20200401145755 47 12 1.0 3.0 0.00 0.00 0.00 81 1010.4
20200401145254 47 22 1.0 4.0 0.00 0.00 0.00 82 1010.4
20200401144755 46 38 1.0 4.0 0.00 0.00 0.00 82 1010.5
20200401144254 46 32 1.0 4.0 0.00 0.00 0.00 84 1010.5
20200401143754 46 9 1.0 4.0 0.00 0.00 0.00 83 1010.4
20200401143254 45 35 1.0 5.0 0.00 0.00 0.00 84 1010.4
20200401142752 45 344 2.0 6.0 0.00 0.00 0.00 84 1010.4
20200401142250 45 30 1.0 6.0 0.00 0.00 0.00 84 1010.4
20200401141754 45 36 1.0 5.0 0.00 0.00 0.00 85 1010.4
20200401141251 44 32 0.0 5.0 0.00 0.00 0.00 88 1010.3
20200401140748 44 17 1.0 5.0 0.00 0.00 0.00 88 1010.3
20200401140249 44 17 1.0 4.0 0.00 0.00 0.00 88 1010.3
20200401135744 44 22 0.0 4.0 0.00 0.00 0.00 89 1010.2
20200401135243 44 9 1.0 3.0 0.00 0.00 0.00 90 1010.2
20200401134743 43 340 1.0 5.0 0.00 0.00 0.00 90 1010.2
20200401134244 43 349 0.0 5.0 0.00 0.00 0.00 91 1010.1
20200401133742 43 265 1.0 6.0 0.00 0.00 0.00 91 1010.0
20200401133257 43 29 1.0 6.0 0.00 0.00 0.00 91 1010.0
20200401132735 43 19 1.0 4.0 0.00 0.00 0.00 91 1010.0
20200401132235 43 20 1.0 4.0 0.00 0.00 0.00 91 1010.0
20200401131735 43 9 0.0 2.0 0.00 0.00 0.00 92 1009.9
20200401131237 43 5 1.0 3.0 0.00 0.00 0.00 92 1009.9
20200401130736 43 11 1.0 3.0 0.00 0.00 0.00 92 1009.9
20200401130236 42 0 0.0 3.0 0.00 0.00 0.00 92 1009.8
20200401125732 42 332 0.0 3.0 0.00 0.00 0.00 92 1009.8
20200401125233 42 24 1.0 4.0 0.00 0.00 0.00 93 1009.8
20200401124734 42 15 1.0 4.0 0.00 0.00 0.00 92 1009.9
20200401124230 42 329 0.0 3.0 0.00 0.00 0.00 93 1009.9
20200401123731 42 41 0.0 2.0 0.00 0.00 0.00 93 1009.8
20200401123230 42 22 1.0 3.0 0.00 0.00 0.00 92 1009.8
20200401122725 41 20 0.0 3.0 0.00 0.00 0.00 92 1009.8
20200401122225 41 28 0.0 0.0 0.00 0.00 0.00 93 1009.8
20200401121723 41 344 0.0 0.0 0.00 0.00 0.00 93 1009.7
20200401121224 41 23 0.0 0.0 0.00 0.00 0.00 93 1009.7
20200401120724 41 23 0.0 0.0 0.00 0.00 0.00 93 1009.7
20200401120227 41 23 0.0 0.0 0.00 0.00 0.00 93 1009.7
20200401115717 41 23 0.0 0.0 0.00 0.00 0.00 93 1009.7
20200401115217 41 18 0.0 0.0 0.00 0.00 0.00 93 1009.7
20200401114714 41 18 0.0 0.0 0.00 0.00 0.00 93 1009.7
20200401114213 41 18 0.0 0.0 0.00 0.00 0.00 93 1009.6
20200401113714 41 18 0.0 0.0 0.00 0.00 0.00 93 1009.5
20200401113209 41 18 0.0 0.0 0.00 0.00 0.00 93 1009.5
20200401112708 41 18 0.0 0.0 0.00 0.00 0.00 93 1009.5
20200401112208 41 18 0.0 0.0 0.00 0.00 0.00 93 1009.5
20200401111708 41 18 0.0 0.0 0.00 0.00 0.00 93 1009.4
20200401111206 41 18 0.0 0.0 0.00 0.00 0.00 93 1009.4
20200401110706 41 18 0.0 0.0 0.00 0.00 0.00 93 1009.3
20200401110202 41 18 0.0 0.0 0.00 0.00 0.00 93 1009.3
20200401105701 41 18 0.0 0.0 0.00 0.00 0.00 93 1009.2
20200401105202 41 18 0.0 0.0 0.00 0.00 0.00 93 1009.2
20200401104700 41 18 0.0 0.0 0.00 0.00 0.00 93 1009.2
20200401104200 41 18 0.0 0.0 0.00 0.00 0.00 93 1009.2
20200401103701 41 18 0.0 0.0 0.00 0.00 0.00 93 1009.2
20200401103154 41 18 0.0 0.0 0.00 0.00 0.00 93 1009.1
20200401102653 41 18 0.0 0.0 0.00 0.00 0.00 93 1009.1
20200401102150 41 18 0.0 0.0 0.00 0.00 0.00 93 1009.0
20200401101648 41 18 0.0 0.0 0.00 0.00 0.00 93 1009.0
20200401101148 41 21 0.0 0.0 0.00 0.00 0.00 93 1008.9
20200401100641 41 21 0.0 0.0 0.00 0.00 0.00 93 1008.9
20200401100141 41 21 0.0 0.0 0.00 0.00 0.00 93 1008.9
20200401095642 41 21 0.0 0.0 0.00 0.00 0.00 93 1008.9
20200401095143 41 21 0.0 0.0 0.00 0.00 0.00 93 1008.9
20200401094640 41 21 0.0 0.0 0.00 0.00 0.00 93 1008.8